Home   Weather   Tallahassee   Past weeks

Flag for USA Past Weather in Tallahassee, Florida, USA — Yesterday and Last 2 Weeks

Now
78 °F

Broken clouds.


Feels Like: 81 °F
Forecast: 75 / 84 °F
Wind: 7 mph from South

Location: Tallahassee Regional Airport

Current Time: Jul 23, 2017 at 12:53:42 pm

Latest Report: Jul 23, 2017 at 11:53 am


Visibility: 10 mi

Pressure: 30.01 "Hg

Humidity: 93%

Dew Point: 76 °F

Location of TallahasseeLocation

Past Weather in Tallahassee — Graph

°F

Tallahassee Temperature Yesterday

Maximum temperature yesterday: 89 °F (at 12:53 pm)
Minimum temperature yesterday: 73 °F (at 2:42 am)
Average temperature yesterday: 80 °F

High & Low Weather Summary for the Past Weeks

 TemperatureHumidityPressure
High95 °F (Jul 20, 2:53 pm)100% (Jul 10, 12:53 am)30.18 "Hg (Jul 10, 12:53 am)
Low71 °F (Jul 9, 5:53 am)49% (Jul 20, 2:53 pm)29.94 "Hg (Jul 16, 5:53 pm)
Average80 °F84%30.06 "Hg
* Reported Jul 8 10:53 am — Jul 23 10:53 am, Tallahassee. Weather by CustomWeather, © 2017

Note: Actual official high and low records may vary slightly from our data, if they occured in-between our weather recording intervals... More about our weather records

Advertising

Tallahassee Weather History for the Previous 24 Hours

Scroll right to see more
 ConditionsComfort  
Time TempWeatherWind HumidityBarometerVisibility
10:53 am
Sun, Jul 23
75 °FThunderstorms. Fog.No wind96%30.00 "Hg5 mi
10:33 am75 °FStrong thunderstorms. Fog.9 mph96%30.02 "Hg2 mi
10:17 am80 °FThunderstorms. Partly sunny.14 mph85%30.01 "Hg10 mi
9:53 am83 °FThundershowers. Partly sunny.6 mph79%30.00 "Hg10 mi
8:53 am80 °FPartly sunny.No wind90%30.01 "Hg10 mi
7:53 am77 °FScattered clouds.No wind96%30.01 "Hg10 mi
6:53 am75 °FScattered clouds.3 mph96%29.99 "Hg10 mi
5:53 am75 °FPassing clouds.No wind96%29.97 "Hg10 mi
4:53 am76 °FClear.No wind97%29.96 "Hg10 mi
3:53 am75 °FClear.3 mph100%29.95 "Hg10 mi
2:53 am75 °FClear.No wind100%29.98 "Hg10 mi
1:53 am77 °FClear.No wind96%29.99 "Hg10 mi
12:53 am78 °FClear.No wind96%30.00 "Hg10 mi
11:53 pm
Sat, Jul 22
78 °FClear.3 mph96%30.00 "Hg10 mi
10:53 pm79 °FPassing clouds.No wind94%30.00 "Hg10 mi
9:53 pm80 °FPassing clouds.No wind90%30.00 "Hg10 mi
8:53 pm82 °FPassing clouds.6 mph88%29.99 "Hg10 mi
7:53 pm84 °FPartly sunny.8 mph83%29.99 "Hg10 mi
6:53 pm85 °FPartly sunny.7 mph80%29.98 "Hg10 mi
5:53 pm84 °FBroken clouds.6 mph80%29.99 "Hg10 mi
4:53 pm84 °FBroken clouds.6 mph74%29.98 "Hg10 mi
3:53 pm85 °FBroken clouds.7 mph77%29.99 "Hg10 mi
2:53 pm82 °FBroken clouds.3 mph88%30.02 "Hg10 mi
1:53 pm79 °FThunderstorms. Partly sunny.9 mph90%30.04 "Hg5 mi
1:05 pm83 °FThunderstorms. Partly sunny.20 mph79%30.06 "Hg1 mi
12:53 pm89 °FThunderstorms. Partly sunny.5 mph63%30.04 "Hg10 mi
Weather by CustomWeather, © 2017

See weather overviewHow to use our weather pages